Reflectivity
-12 -20 -20 -20 -20 -20 -20 -20 -20 -20 -20 -20 -20 -20 15 -19 -5 -18 -20 -20 -12 8 -20 -20 -20 -20 -20 -20 -20 -20 -20 -20 -20 -20 -20 -20 -20 -20 -20 -20 -20 -20 -20 -20 -19 1 2 -20 -20 -20 -20 -20 -20 -20
-20 -20 -20 -1 -20 -20 -20 -20 -20 -20 -20 -5 -20 -20 -20 -20 -20 -11 -20 -18 10 -1 -20 -20 -20 -20 -20 -20 -20 -20 -20 -19 -20 11 -1 -20 -20 -20 -20 -20 -20 -20 -20 -20 -20 -20 -20 -20 -20 -20 -20 -20 -20 -20
-20 -20 -20 -17 11 -14 16 -20 -3 2 -20 -2 2 15 -5 -18 -17 2 -19 -14 -8 23 -20 -20 -20 -20 -20 -20 -20 -20 -20 -20 -20 -20 -20 -20 -2 -20 -20 -20 -0 -20 -20 -20 -20 -20 -20 -20 -20 -20 -20 -20 -20 -20
-20 -20 -20 -18 -17 -20 15 0 -4 -20 -20 15 -7 -20 -15 22 17 20 -20 -20 -20 -10 12 -20 -20 -20 -20 -20 -20 -20 -20 -20 -20 -20 -20 -13 -4 -20 -20 -20 -20 -16 -16 -14 -20 -20 -20 -20 -20 -20 -20 -20 -20 -20
-12 -14 -18 -11 3 -20 -20 -16 -20 -20 12 9 -8 -20 -7 -8 10 22 -15 -20 -20 -14 -20 -20 -20 -20 -20 -20 -20 -20 -20 -20 -20 -11 3 5 -20 -6 -20 -20 -20 -20 -20 -20 -20 -20 -20 -20 -20 -20 -20 -20 -20 -20
-7 -14 -19 -19 1 -20 -20 -20 -20 -20 -1 10 -20 -9 -20 -8 20 10 -19 -20 -20 -20 20 -17 -20 -20 -20 -20 -20 -20 -20 -20 -20 6 -15 -19 -16 5 13 -3 -20 -20 -20 -20 -20 -20 -20 -20 -20 -20 -20 -20 -20 -20
-17 -20 -20 13 -13 -14 -15 -20 -20 -20 -16 -20 -17 -3 -9 -7 19 -20 -20 -16 -20 -20 -13 -18 -20 -20 -20 -20 -20 -20 -20 -20 -20 5 0 -14 8 6 9 -17 -20 -20 -20 -20 -20 -20 -20 -20 -20 -20 -20 -20 -20 -20
-14 10 2 -18 -19 -9 -20 -20 -20 -20 -20 -20 -10 -13 -19 2 2 3 -13 18 22 23 24 14 -20 -20 -20 -20 -20 -20 -19 -20 2 -0 -1 -20 -7 8 11 -20 -20 -20 -20 -20 -20 -20 -20 -20 -20 -20 -20 -20 -20 -20
-12 -14 -13 -20 -20 -20 -16 14 20 18 12 23 14 26 -9 -20 -7 -20 -20 -5 12 -12 -19 -20 -20 -20 -20 -20 -20 -18 16 14 6 21 -9 -17 11 11 -16 -20 -19 0 -18 -20 -20 -16 -19 -20 -12 -20 -20 -20 -20 -20
-20 -20 15 -20 -20 -20 -18 -19 4 17 -20 22 -20 -20 -20 -20 -20 -20 -20 -20 -20 11 15 -20 -20 -20 -20 -20 -20 -20 -20 -8 8 -18 11 9 -17 -20 -20 -12 -13 -20 -20 -20 -19 0 -10 -11 -2 -20 -20 -20 -20 -20
-20 -20 -20 -20 -20 -11 -19 -20 -12 6 -20 -20 -20 -20 -20 -20 -20 -20 -20 -20 -20 -11 -20 -14 -20 -20 -18 -20 -20 -19 -13 8 15 -1 -5 3 -20 -20 -20 -20 -20 -20 -20 -14 -9 19 0 -20 -20 -20 -20 -20 -20 -20
-20 -20 -20 -20 -14 2 -3 -1 -1 -10 -13 -20 -20 -20 -20 -20 -20 -20 -20 -20 -20 -3 6 25 30 18 21 17 6 11 15 6 -7 11 26 -3 -14 -20 -20 -20 -20 -20 -20 -20 -14 -20 -20 -20 -20 -20 -20 -20 -20 -20
-20 -19 -20 -20 -20 21 -20 -4 -8 9 13 22 26 0 -20 -20 -20 -20 -20 -20 -20 -18 -20 -11 2 15 19 23 19 9 12 -10 -20 8 -19 -19 -19 -20 -20 -20 -20 -20 -20 -20 -10 -20 -20 -20 -20 -20 -20 -20 -20 -20
-2 -20 -8 -20 -17 -17 14 -8 -20 6 12 3 6 17 -20 -20 -20 -20 -20 -20 -20 -20 -20 -20 -13 12 5 29 14 17 -4 9 13 -18 -10 -20 -20 -20 -20 -20 -20 -20 -20 -20 -20 -20 -20 -20 -20 -20 -20 -20 -20 -20
-15 -15 -20 -20 -15 16 21 -8 5 3 2 18 9 -0 -20 -20 -20 -20 -20 -20 -20 -20 -20 -20 -17 -15 -1 21 -8 -13 -8 -2 -17 -3 -20 -20 -20 -20 -20 -20 -20 -20 -20 -20 -20 -20 -20 -20 -20 -20 -20 -20 -20 -20
-4 -3 -20 -20 -8 12 5 1 -13 26 13 -20 -20 -20 -20 -20 -20 -20 -20 -20 -20 -20 -20 3 11 4 6 -11 16 11 -20 -20 -10 -20 -20 -17 -20 -20 -20 -20 -20 -20 -20 -20 -20 -20 -20 -20 -20 -20 -20 -20 -20 -20
2 -20 -20 -11 7 18 16 -18 11 12 -20 -20 -20 -20 -20 -20 -20 -20 -20 -20 -20 -20 -10 8 7 8 12 28 -8 11 9 -6 -16 -12 -5 3 -4 13 -20 -20 -20 -20 -20 -20 -20 -20 -20 -20 -20 -20 -20 -20 -20 -20
-18 -17 16 20 20 12 22 -5 -2 -5 -20 -20 -20 -20 -20 -20 -20 -20 -20 -20 -20 -18 -20 -8 -0 -20 -5 9 21 18 5 3 16 19 17 20 20 -4 -20 -20 -20 -20 -20 -20 -20 -20 -20 -20 -20 -20 -20 -20 -20 -20
-4 -3 -15 21 -8 -17 -4 -3 -9 -8 -20 -20 -20 -20 -20 -20 -20 -20 -20 -20 -18 -14 5 -12 4 -12 9 14 16 21 21 19 16 10 14 14 18 -4 -10 -20 -20 -20 -20 -20 -20 -20 -20 -20 -20 -20 -20 -20 -20 -20
9 -8 14 -3 -20 -20 -20 -20 -20 -20 -20 -20 -20 -20 -20 -20 -20 -20 -20 -20 -20 -4 -9 -18 -20 -12 0 -16 8 15 12 15 16 12 16 8 15 8 5 -9 -20 -20 -20 -20 -20 -20 -20 -20 -20 -20 -20 -20 -20 -20
-14 -13 4 2 -20 -20 -20 -20 -20 -20 -20 -20 -20 -20 -20 -20 -20 -20 -20 -20 -20 -20 -20 -20 -20 -20 -20 5 10 14 11 9 10 10 15 16 13 4 16 8 -20 -20 -20 -20 -20 -20 -20 -20 -20 -20 -20 -20 -20 -18
-11 2 -20 -16 -20 -14 -20 -20 -20 -20 -20 -20 -20 -9 -20 -20 -20 -20 -20 -20 -20 -20 -20 -20 -20 -17 -20 -3 7 13 14 14 13 12 12 18 14 16 19 16 5 -3 -15 -13 -8 -2 -6 -6 -12 -16 -9 -15 -11 -6
-5 10 -13 -20 -20 -20 -20 -20 -20 -20 -20 -20 -20 -20 -20 -20 -20 -20 -20 -20 -20 -20 -20 -20 -14 -16 -8 4 8 11 13 15 13 11 14 17 16 16 15 16 19 17 15 19 19 15 6 -1 -3 -11 -16 -20 -20 -20
14 19 5 -20 -20 -20 -20 -20 -20 -20 -20 -20 -20 -20 -20 -20 -20 -20 -20 -20 -20 -2 0 0 -5 -6 -0 3 5 5 13 14 13 11 14 15 13 15 16 17 20 20 17 9 9 -5 -19 -20 -20 -20 -20 -20 -20 -20
6 -20 -20 -20 -20 -20 -20 -20 -20 -20 -20 -20 -20 -20 -20 -20 -20 -20 -20 -20 -20 -4 -4 2 2 -1 5 8 10 11 15 15 14 13 14 15 15 13 10 8 4 -3 -5 5 -3 -20 -20 -20 -20 -20 -20 -20 -20 -20
-20 -20 -20 -20 -20 -20 -20 -20 -20 -20 -20 -20 -20 -20 -20 -20 -20 -20 -20 -20 -20 -20 -20 -5 -3 -19 -1 10 12 11 12 13 16 13 9 3 5 10 8 7 2 -17 -18 -20 -20 -20 -20 -20 -20 -20 -20 -20 -20 -20
-20 -20 -20 -20 -20 -20 -20 -20 -20 -20 -20 -20 -20 -20 -20 -20 -20 -20 -20 -20 -20 -20 -20 -17 -11 -6 -2 3 9 11 13 14 13 12 3 6 6 -10 -20 -20 -20 -20 -20 -20 -20 -20 -20 -20 -20 -20 -20 -20 -20 -20
-20 -20 -20 -20 -20 -20 -20 -20 -20 -20 -20 -20 -20 -20 -20 -20 -20 -20 -20 -20 -20 -20 -20 -20 -6 3 1 -4 3 9 12 13 13 15 9 5 5 9 7 -3 -20 -20 -20 -20 -20 -20 -20 -20 -20 -20 -20 -20 -20 -20
-20 -20 -20 -20 -20 -20 -20 -20 -20 -20 -20 -20 -20 -20 -20 -20 -20 -20 -20 -20 -20 -20 -20 -20 -20 -4 -2 -20 2 5 8 12 8 9 16 14 12 7 0 -2 -4 -17 -20 -20 -20 -20 -20 -20 -20 -20 -20 -20 -20 -20
-20 -20 -20 -20 -20 -20 -20 -20 -20 -20 -20 -20 -20 -20 -20 -20 -20 -20 -20 -20 -20 -20 -20 -20 -20 -17 -12 -20 -10 7 8 7 12 9 1 11 12 8 -7 -20 -20 -20 -20 -20 -20 -20 -20 -20 -20 -20 -20 -20 -20 -20
-20 -20 -20 -20 -20 -20 -20 -20 -20 -20 -20 -20 -20 -20 -20 -20 -20 -20 -11 -9 -20 -20 -20 -20 -20 -20 -20 -16 -20 -2 6 6 2 8 6 0 -5 -15 -20 -20 -20 -20 -20 -20 -20 -20 -20 -20 -20 -20 -20 -20 -20 -20
-20 -20 -20 -20 -20 -20 -20 -20 -20 -20 -20 -20 -20 -20 -20 -20 -20 -20 -20 -20 -20 -20 -20 -20 -20 -20 -20 -20 -20 -7 -3 0 -0 7 5 3 3 -4 -19 -20 -20 -20 -20 -20 -20 -20 -20 -20 -20 -20 -20 -20 -20 -20
-20 -20 -20 -20 -20 -20 -20 -20 -20 -20 -20 -20 -20 -20 -20 -20 -20 -20 -20 -20 -20 -20 -20 -20 -20 -20 -20 -20 -20 -20 -11 -1 -9 -20 -17 -13 -20 -20 -20 -20 -20 -20 -20 -20 -20 -20 -20 -20 -20 -20 -20 -20 -20 -20
Wind_Speed
3 4 4 4 5 6 7 6 6 6 6 7 6 6 6 5 6 3 2 3 3 2 6 6 4 4 1 2 2 3 5 4 2 1 3 5 4 7 5 7 7 9 6 6 6 7 15 5 2 8 6 4 4 4
5 7 7 7 7 9 9 8 8 8 8 9 9 9 8 6 6 5 1 1 2 2 6 4 7 12 10 10 5 3 5 2 3 4 0 3 3 2 4 5 7 10 13 6 10 8 3 2 6 6 3 14 14 5
7 7 7 8 9 9 8 9 10 9 11 11 11 11 11 9 8 5 3 3 2 3 4 1 10 10 7 12 8 4 3 7 5 5 2 4 7 1 2 4 5 6 4 7 4 9 14 18 19 7 8 14 16 9
7 7 7 8 8 9 9 9 10 11 11 11 12 13 14 13 13 5 4 3 3 2 4 7 1 4 6 7 11 17 16 1 2 3 4 4 2 5 5 7 8 6 3 3 7 8 9 14 14 14 17 16 11 8
8 8 8 8 9 9 10 10 9 12 13 13 12 14 14 12 12 1 2 4 4 5 4 3 9 17 15 11 14 12 14 13 7 6 6 7 4 6 9 8 16 8 11 7 10 12 8 15 8 7 9 9 8 6
9 9 8 9 11 9 10 10 10 11 12 12 12 13 13 12 4 2 3 2 5 4 3 3 3 9 5 5 10 10 9 8 7 5 6 8 13 7 6 9 25 19 17 21 24 26 14 16 11 9 17 12 9 6
10 9 9 10 9 9 9 9 11 11 12 12 12 12 12 13 2 4 6 4 7 4 2 4 5 4 3 4 3 3 6 6 7 6 10 12 6 13 9 21 38 11 14 18 24 15 14 15 14 11 14 9 6 4
9 9 9 8 9 10 9 10 11 12 13 14 13 13 12 11 8 7 6 9 6 1 3 3 5 4 5 4 3 4 4 5 7 6 3 10 8 10 15 29 16 16 17 14 10 12 16 10 6 10 5 3 5 6
8 10 7 9 8 9 10 11 9 9 8 11 11 11 3 1 2 4 9 11 2 4 4 4 4 5 1 3 4 3 4 4 6 7 6 7 8 13 15 15 19 19 19 20 17 15 9 12 10 8 7 6 6 6
3 6 6 6 7 8 9 9 9 8 10 5 4 3 2 4 5 3 4 2 3 4 4 5 3 10 4 2 3 2 4 6 4 8 5 9 16 18 19 16 17 17 17 10 6 6 7 7 9 9 9 5 6 5
4 4 6 8 8 9 9 9 9 9 4 2 2 3 3 4 3 4 1 3 2 4 5 5 9 10 4 9 5 3 5 4 5 5 6 4 6 18 23 22 18 13 10 11 12 10 11 8 7 7 7 7 5 5
6 7 9 10 10 10 11 9 10 2 1 5 4 1 2 3 3 3 3 5 4 6 2 2 1 5 5 4 5 4 4 4 8 3 4 5 5 4 5 7 17 14 10 9 7 8 6 6 5 7 6 4 4 4
8 9 10 12 12 11 11 10 10 13 6 1 2 2 3 2 1 6 5 6 3 3 3 8 11 3 4 5 5 5 7 8 1 4 5 6 4 5 6 5 5 5 8 9 7 6 7 6 5 4 4 3 3 3
9 10 11 11 10 11 12 10 11 4 2 2 3 3 5 3 6 7 6 4 4 4 6 6 7 5 2 6 4 7 7 2 2 2 7 3 4 6 5 4 3 3 6 7 7 6 7 6 5 4 3 2 2 3
12 12 13 12 12 13 12 7 7 2 2 3 3 4 7 5 3 5 5 3 3 2 2 6 7 5 5 5 5 4 2 4 5 5 3 3 4 4 5 4 4 4 5 5 5 5 4 5 5 5 4 3 4 5
14 13 6 12 11 8 5 7 3 1 1 3 2 1 2 1 4 2 3 5 3 1 3 2 5 6 7 4 4 6 4 5 3 3 3 3 3 3 3 3 3 4 5 5 5 5 6 6 6 6 5 6 6 6
11 4 4 8 13 13 10 3 1 1 3 2 5 1 2 1 5 4 3 3 1 1 2 2 7 5 6 5 2 3 3 5 6 4 3 4 2 2 3 4 4 5 6 6 6 6 6 6 7 7 10 6 8 8
4 3 11 11 2 5 2 1 2 2 3 4 2 3 3 4 3 3 3 2 2 2 2 4 4 4 5 6 4 5 9 6 4 4 3 3 3 3 4 5 5 6 6 7 8 7 7 8 10 7 7 6 9 9
4 5 9 9 6 4 3 0 1 3 6 3 3 2 3 3 3 2 2 2 3 3 3 3 5 3 3 3 7 11 11 4 2 2 3 4 4 5 6 7 7 7 8 7 9 8 7 8 6 5 5 6 8 6
3 6 5 9 3 4 4 3 2 1 3 3 2 2 3 3 2 1 1 1 1 2 4 4 3 3 4 9 9 10 8 2 1 1 3 4 4 6 7 7 6 8 9 9 9 12 8 9 7 7 7 8 9 8
6 4 8 5 4 4 3 2 2 4 3 2 1 1 3 2 2 1 1 1 1 1 2 2 3 7 9 9 8 7 3 2 2 2 2 4 5 5 6 6 7 7 7 7 8 9 10 8 6 7 9 9 9 9
2 6 3 5 3 4 3 2 2 3 1 3 3 1 2 1 2 2 1 3 0 2 2 4 6 8 7 8 8 6 5 5 7 6 9 7 5 6 6 5 6 7 7 6 7 8 8 7 8 9 10 10 11 9
9 4 4 4 4 4 5 3 2 3 0 4 3 2 2 2 2 1 2 0 0 2 5 6 9 8 5 7 5 7 8 6 6 6 6 6 6 6 7 7 6 7 8 7 6 7 8 13 12 10 9 10 9 9
7 5 3 2 3 4 3 3 2 3 4 3 1 3 3 2 2 3 1 2 2 4 6 10 7 4 4 6 6 6 7 4 5 7 6 6 7 7 7 6 7 7 6 6 7 7 8 8 11 8 9 10 9 9
5 3 5 3 3 4 4 5 5 4 2 2 1 3 3 2 2 2 1 2 4 4 6 7 7 6 4 4 4 5 8 5 5 7 7 6 6 6 7 7 7 6 3 7 8 9 8 7 8 9 10 9 10 10
3 3 3 4 3 2 3 1 1 2 2 2 2 2 2 2 3 1 2 3 3 3 5 6 6 6 4 4 3 4 5 5 2 6 5 6 5 4 4 6 6 5 5 4 8 10 10 8 9 11 10 12 16 10
3 4 2 0 1 3 1 2 2 1 1 2 2 3 2 2 1 1 2 2 3 3 5 5 4 4 4 4 3 4 4 5 6 5 4 5 6 5 4 5 6 3 4 5 7 9 11 10 10 9 9 8 7 6
4 3 5 3 3 1 4 1 1 0 2 2 2 3 1 2 1 3 2 4 5 6 5 3 3 3 3 3 3 3 4 3 3 5 8 9 8 8 8 7 7 16 9 7 8 8 8 9 9 8 9 8 5 4
2 1 3 3 3 3 2 3 2 1 3 1 0 1 1 1 2 3 3 6 6 4 4 5 4 4 2 2 3 4 3 3 1 9 11 6 4 5 5 5 7 7 8 10 19 14 11 9 8 8 8 7 5 4
1 1 4 2 3 1 3 2 2 2 2 1 1 2 2 1 1 3 4 4 4 4 4 4 4 4 4 4 3 4 4 4 4 4 5 6 4 2 3 6 7 6 7 9 10 11 15 9 8 5 7 5 4 4
1 2 4 2 2 2 2 2 3 2 2 2 2 2 1 1 1 2 4 4 4 4 4 5 4 5 5 5 4 4 4 5 5 7 8 6 5 5 5 5 5 6 6 7 7 7 8 6 6 7 7 7 7 6
3 2 4 2 2 3 3 3 2 2 3 2 3 2 2 0 1 3 4 4 3 4 7 5 5 5 6 4 3 2 5 3 4 5 8 6 6 5 5 5 6 6 8 8 7 6 7 8 5 5 5 5 4 4
2 2 2 3 3 3 3 3 5 3 4 3 3 2 0 1 1 2 2 0 1 3 4 5 4 4 5 4 3 4 6 3 9 14 15 14 14 11 6 5 6 7 9 7 6 6 7 8 5 5 5 4 4 3
Wind_Direction
230 243 233 232 262 274 271 271 272 276 284 286 276 276 284 307 315 125 252 189 150 207 269 207 208 192 255 148 146 277 3 337 332 177 205 221 217 225 222 202 196 201 192 195 213 231 257 230 84 171 228 306 267 276
252 254 258 264 251 249 258 266 272 279 283 278 277 273 273 285 292 117 224 289 140 193 252 225 218 228 213 206 174 218 215 291 263 265 344 304 284 259 214 254 232 238 217 201 189 211 236 214 258 278 292 290 293 262
264 274 276 256 259 268 275 280 282 277 271 275 276 271 271 259 263 170 179 182 154 266 263 349 252 252 220 224 191 192 240 205 238 179 198 237 238 46 263 263 274 283 244 228 249 255 260 271 281 259 276 277 281 253
267 264 266 263 264 268 273 279 288 285 283 277 275 272 274 275 273 192 161 183 135 258 263 270 73 220 238 211 191 209 224 256 53 159 209 230 224 208 238 260 247 221 340 271 263 265 283 272 267 272 280 282 266 241
258 257 258 262 268 272 274 283 288 285 284 283 280 276 275 278 277 2 194 208 177 174 238 271 316 279 233 229 225 209 219 231 229 244 238 242 221 247 254 278 258 218 230 224 249 250 224 265 273 284 275 282 272 251
258 251 257 261 273 277 278 272 279 287 285 279 281 277 275 273 280 65 318 293 211 146 270 299 296 289 267 250 237 221 205 216 209 211 227 236 226 228 241 242 250 244 232 234 247 253 246 267 277 262 269 263 249 225
258 250 252 264 271 271 275 279 282 277 278 282 281 282 277 266 148 179 197 207 145 132 257 309 276 259 245 224 235 223 188 209 205 224 228 236 216 208 246 251 254 228 243 235 234 253 263 262 262 272 241 228 227 217
250 251 254 255 268 277 280 282 286 286 281 279 276 276 272 285 305 233 235 233 188 184 234 262 265 335 191 242 250 203 212 184 210 224 224 215 222 219 245 246 255 241 242 255 234 215 238 255 257 252 226 201 221 228
251 263 247 263 269 281 294 294 275 289 302 297 286 279 5 167 215 235 221 232 137 154 210 223 176 259 125 237 224 242 222 255 195 212 209 191 192 220 239 238 237 233 225 235 240 231 240 233 242 229 209 213 230 242
267 257 241 255 274 284 290 296 310 317 321 332 66 79 244 221 282 337 34 44 213 207 219 237 191 239 161 181 261 273 221 232 241 220 172 218 237 240 232 224 223 220 217 215 161 220 218 232 220 212 212 213 224 239
257 264 272 281 279 278 284 299 301 341 66 55 175 224 247 321 54 32 342 205 284 269 218 228 212 244 231 226 218 237 250 253 269 221 208 238 255 234 231 229 220 205 195 204 209 222 212 208 185 196 216 206 201 221
266 273 278 283 280 275 285 294 299 61 216 202 179 87 17 58 55 82 253 311 226 244 224 214 259 221 238 216 187 212 230 245 251 176 237 245 252 357 336 280 235 221 187 184 180 184 172 166 183 159 156 179 203 227
271 281 293 286 277 266 278 291 297 291 151 96 164 85 88 294 92 162 237 278 265 309 313 320 329 264 223 188 201 223 231 224 171 231 235 239 324 340 339 342 38 104 138 130 127 116 117 116 111 121 150 172 177 224
271 284 291 286 287 285 288 292 306 182 124 201 158 176 176 263 229 198 190 205 236 226 298 306 303 278 257 208 236 235 223 280 256 263 240 273 298 319 342 0 35 66 115 117 122 130 130 130 127 101 109 135 161 185
274 274 280 285 278 271 277 293 124 82 162 203 152 228 218 229 242 235 220 275 268 252 316 313 278 232 259 249 207 248 264 256 221 240 251 289 316 335 346 10 78 90 96 98 103 108 112 127 121 99 52 86 122 113
276 285 274 274 286 273 293 122 96 140 140 154 193 304 232 306 284 301 223 242 248 228 278 256 268 269 242 232 220 219 176 233 300 312 301 309 346 339 37 43 86 96 94 97 100 108 107 104 102 93 68 58 66 82
280 219 284 319 283 273 162 106 135 116 186 171 247 245 153 227 230 234 189 232 205 59 230 248 268 257 300 267 261 26 352 325 311 307 311 344 341 346 67 71 72 85 86 84 88 81 82 79 77 79 80 44 68 65
253 268 282 269 223 80 54 98 104 114 245 246 184 241 203 210 213 254 235 230 157 223 222 220 297 283 289 326 331 346 322 306 336 351 8 32 27 26 60 72 64 73 82 79 83 79 73 80 86 84 87 83 81 69
218 234 253 178 128 103 108 87 98 234 236 224 255 232 219 249 235 234 197 221 210 218 252 246 251 261 306 321 319 311 305 289 314 345 25 51 53 64 79 77 73 75 74 67 76 78 77 71 80 79 74 80 80 69
201 194 217 128 91 82 42 312 13 211 263 246 275 273 235 231 258 248 250 236 240 248 206 229 259 348 298 299 297 290 288 303 301 46 46 53 57 66 67 77 79 88 84 80 82 87 84 75 62 69 74 73 79 72
67 87 66 56 40 57 113 166 243 212 284 262 312 290 273 349 324 349 296 282 59 278 284 283 289 295 295 289 294 299 323 13 24 29 36 82 62 68 71 63 70 72 78 78 82 81 74 75 74 73 76 74 73 76
112 87 82 23 74 15 67 324 207 285 255 253 302 312 286 311 289 284 257 56 346 273 279 303 292 296 307 325 328 333 348 34 44 52 51 68 68 60 58 63 73 72 68 71 81 86 81 75 79 80 80 82 78 78
88 53 50 47 76 51 256 11 42 336 238 279 354 330 309 314 248 345 63 210 314 314 309 296 291 295 310 325 343 20 17 35 49 47 54 60 59 54 61 52 57 80 82 60 69 80 83 88 85 85 85 80 81 75
46 58 89 94 85 249 1 358 350 357 352 357 346 299 308 264 314 57 70 10 338 335 341 336 332 344 352 10 14 7 0 14 54 44 31 63 66 51 57 62 60 57 61 75 74 76 77 81 87 82 79 81 74 77
102 322 92 322 327 49 25 353 343 37 274 272 337 304 312 354 61 50 26 328 331 358 349 344 348 7 6 353 1 10 8 15 58 61 18 40 75 75 66 62 56 40 31 93 85 85 78 78 77 78 73 79 92 81
110 287 99 194 272 119 191 354 264 235 283 293 256 282 3 62 53 328 359 327 317 341 349 342 333 333 4 7 344 353 345 334 16 71 27 16 34 66 94 98 88 46 16 69 107 100 89 82 84 86 81 79 87 86
126 258 275 295 175 117 48 334 344 96 342 303 327 332 28 67 281 319 355 34 319 327 313 305 315 335 342 350 3 356 360 21 57 85 71 43 36 33 50 95 95 83 54 64 92 105 108 101 94 90 88 69 52 57
166 175 161 242 70 19 135 50 102 274 283 306 310 28 54 19 325 338 333 345 319 307 301 321 347 351 351 359 5 6 22 23 68 101 91 63 47 39 53 75 86 96 86 73 76 79 87 96 100 99 96 96 86 41
75 0 100 46 37 42 163 163 219 342 354 298 131 85 91 52 342 322 314 322 314 321 0 359 350 335 340 10 25 18 3 347 3 105 95 95 69 31 7 66 80 82 87 91 91 91 90 90 91 90 89 90 88 72
278 357 91 70 104 210 244 182 253 284 281 23 39 114 101 100 33 333 339 346 357 355 348 345 344 356 2 8 7 36 26 4 21 76 120 120 119 117 65 80 79 76 88 95 94 91 88 71 77 53 63 60 48 49
35 74 72 62 156 250 243 295 288 266 18 39 4 78 77 144 125 28 7 347 333 335 8 3 357 13 11 14 9 10 35 16 25 76 89 92 97 95 92 86 85 88 91 93 91 90 96 78 75 82 77 71 57 66
25 91 128 109 268 300 17 36 3 35 352 39 19 10 13 72 29 359 5 350 358 12 4 2 359 348 346 343 353 359 93 69 52 73 90 96 90 83 89 89 88 88 88 86 87 90 91 95 93 89 94 84 68 49
50 52 46 76 34 7 339 62 28 5 20 23 355 356 262 330 187 286 309 140 252 292 324 318 312 318 332 1 36 58 85 104 120 111 111 113 115 111 94 85 88 92 96 95 87 96 92 96 85 79 73 67 52 28